TimeCST,TemperatureF,Dew PointF,Humidity,Sea Level PressureIn,VisibilityMPH,Wind Direction,Wind SpeedMPH,Gust SpeedMPH,PrecipitationIn,Events,Conditions,WindDirDegrees,DateUTC
12:15 AM,25.3,18.0,74,30.06,10.0,SW,5.8,-,N/A,,Scattered Clouds,220,2013-02-02 06:15:00
12:35 AM,24.6,17.8,75,30.06,10.0,WSW,5.8,-,N/A,,Scattered Clouds,250,2013-02-02 06:35:00
12:55 AM,25.2,18.9,77,30.06,10.0,West,5.8,-,N/A,,Clear,260,2013-02-02 06:55:00
1:15 AM,25.3,19.4,78,30.06,10.0,West,4.6,-,N/A,,Clear,280,2013-02-02 07:15:00
1:35 AM,25.7,20.5,81,30.07,10.0,WNW,5.8,-,N/A,,Clear,300,2013-02-02 07:35:00
1:55 AM,24.8,20.1,82,30.07,10.0,WNW,6.9,-,N/A,,Clear,290,2013-02-02 07:55:00
2:15 AM,24.8,20.3,83,30.08,10.0,West,6.9,-,N/A,,Clear,270,2013-02-02 08:15:00
2:35 AM,25.3,21.2,84,30.08,10.0,West,6.9,-,N/A,,Scattered Clouds,280,2013-02-02 08:35:00
2:55 AM,25.7,21.9,86,30.09,10.0,West,6.9,-,N/A,,Mostly Cloudy,280,2013-02-02 08:55:00
3:15 AM,27.1,23.0,84,30.10,10.0,WNW,6.9,-,N/A,,Overcast,290,2013-02-02 09:15:00
3:35 AM,28.4,23.7,83,30.10,10.0,WNW,6.9,-,N/A,,Overcast,300,2013-02-02 09:35:00
3:55 AM,28.4,23.7,83,30.10,10.0,WNW,6.9,-,N/A,,Overcast,300,2013-02-02 09:55:00
4:15 AM,27.9,23.0,82,30.10,10.0,WNW,6.9,-,N/A,,Overcast,300,2013-02-02 10:15:00
4:35 AM,27.1,22.8,84,30.10,10.0,NW,5.8,-,N/A,,Mostly Cloudy,310,2013-02-02 10:35:00
4:55 AM,27.0,22.8,84,30.11,10.0,WNW,6.9,-,N/A,,Mostly Cloudy,300,2013-02-02 10:55:00
5:15 AM,27.3,23.0,84,30.10,10.0,WNW,4.6,-,N/A,,Overcast,300,2013-02-02 11:15:00
5:35 AM,27.5,23.5,85,30.11,10.0,NW,5.8,-,N/A,,Overcast,310,2013-02-02 11:35:00
6:15 AM,27.9,23.5,84,30.13,10.0,NW,5.8,-,N/A,,Overcast,310,2013-02-02 12:15:00
6:35 AM,28.2,21.7,77,30.13,10.0,NW,10.4,-,N/A,,Overcast,320,2013-02-02 12:35:00
6:55 AM,27.9,21.2,76,30.14,10.0,NW,10.4,-,N/A,,Overcast,320,2013-02-02 12:55:00
7:15 AM,27.5,21.4,78,30.15,10.0,NW,8.1,-,N/A,,Overcast,320,2013-02-02 13:15:00
7:35 AM,27.3,21.2,78,30.15,10.0,NNW,6.9,-,N/A,,Overcast,340,2013-02-02 13:35:00
7:55 AM,27.1,21.7,80,30.16,10.0,NNW,5.8,-,N/A,,Overcast,340,2013-02-02 13:55:00
8:35 AM,27.1,21.9,81,30.17,10.0,NNW,5.8,-,N/A,,Overcast,340,2013-02-02 14:35:00
8:55 AM,27.3,21.7,80,30.17,10.0,North,4.6,-,N/A,,Overcast,360,2013-02-02 14:55:00
9:15 AM,27.0,20.3,76,30.18,10.0,North,8.1,-,N/A,,Overcast,350,2013-02-02 15:15:00
9:35 AM,26.6,19.8,75,30.19,10.0,North,4.6,-,N/A,,Overcast,350,2013-02-02 15:35:00
9:55 AM,26.6,19.6,75,30.18,10.0,North,6.9,-,N/A,,Overcast,10,2013-02-02 15:55:00
10:15 AM,26.6,19.2,74,30.18,10.0,Calm,Calm,-,N/A,,Overcast,0,2013-02-02 16:15:00
10:35 AM,26.8,19.2,73,30.19,10.0,North,3.5,-,N/A,,Overcast,350,2013-02-02 16:35:00
10:55 AM,27.1,18.9,71,30.19,10.0,North,5.8,-,N/A,,Overcast,360,2013-02-02 16:55:00
11:15 AM,27.3,18.9,70,30.18,10.0,North,3.5,-,N/A,,Overcast,360,2013-02-02 17:15:00
11:35 AM,27.5,18.9,70,30.18,10.0,Calm,Calm,-,N/A,,Overcast,0,2013-02-02 17:35:00
11:55 AM,27.5,18.9,70,30.19,10.0,Calm,Calm,-,N/A,,Overcast,0,2013-02-02 17:55:00
12:15 PM,27.5,19.2,71,30.18,10.0,Calm,Calm,-,N/A,,Overcast,0,2013-02-02 18:15:00
12:35 PM,27.7,19.4,71,30.17,10.0,Calm,Calm,-,N/A,,Overcast,0,2013-02-02 18:35:00
12:55 PM,27.9,19.8,72,30.16,10.0,Calm,Calm,-,N/A,,Overcast,0,2013-02-02 18:55:00
1:15 PM,28.6,21.0,73,30.16,10.0,SSW,4.6,-,N/A,,Overcast,210,2013-02-02 19:15:00
1:35 PM,28.4,21.7,76,30.14,10.0,SW,3.5,-,N/A,,Overcast,220,2013-02-02 19:35:00
1:55 PM,29.7,22.5,75,30.14,10.0,South,5.8,-,N/A,,Overcast,190,2013-02-02 19:55:00
2:15 PM,30.6,23.4,75,30.14,10.0,SSW,6.9,-,N/A,,Overcast,210,2013-02-02 20:15:00
2:35 PM,31.6,24.3,74,30.13,10.0,SSW,4.6,-,N/A,,Overcast,210,2013-02-02 20:35:00
2:55 PM,32.5,25.5,75,30.11,10.0,SSW,5.8,-,N/A,,Overcast,200,2013-02-02 20:55:00
3:15 PM,32.9,26.2,76,30.10,10.0,South,8.1,-,N/A,,Mostly Cloudy,170,2013-02-02 21:15:00
3:35 PM,33.8,27.1,77,30.10,10.0,South,5.8,-,N/A,,Scattered Clouds,170,2013-02-02 21:35:00
3:55 PM,33.1,27.7,81,30.09,10.0,South,6.9,-,N/A,,Mostly Cloudy,180,2013-02-02 21:55:00
4:15 PM,33.8,27.5,78,30.07,10.0,South,8.1,-,N/A,,Scattered Clouds,170,2013-02-02 22:15:00
4:35 PM,33.4,28.0,81,30.06,10.0,South,8.1,-,N/A,,Clear,170,2013-02-02 22:35:00
4:55 PM,33.1,27.9,81,30.05,10.0,SSE,6.9,-,N/A,,Scattered Clouds,160,2013-02-02 22:55:00
5:15 PM,33.3,28.4,82,30.05,10.0,South,6.9,-,N/A,,Scattered Clouds,180,2013-02-02 23:15:00
5:35 PM,33.4,28.6,82,30.05,10.0,Calm,Calm,-,N/A,,Scattered Clouds,0,2013-02-02 23:35:00
5:55 PM,33.4,28.4,82,30.04,10.0,SE,3.5,-,N/A,,Mostly Cloudy,130,2013-02-02 23:55:00
6:15 PM,32.9,28.8,85,30.04,10.0,SE,4.6,-,N/A,,Overcast,140,2013-02-03 00:15:00
6:35 PM,32.0,28.9,88,30.04,10.0,Calm,Calm,-,N/A,,Overcast,0,2013-02-03 00:35:00
6:55 PM,32.4,28.9,87,30.06,10.0,South,4.6,-,N/A,,Overcast,170,2013-02-03 00:55:00
7:15 PM,32.0,28.8,88,30.09,10.0,North,4.6,17.3,N/A,,Overcast,10,2013-02-03 01:15:00
7:35 PM,33.4,30.2,88,30.07,10.0,West,4.6,-,N/A,,Overcast,260,2013-02-03 01:35:00
7:55 PM,36.1,31.6,84,30.07,10.0,West,9.2,-,N/A,,Scattered Clouds,280,2013-02-03 01:55:00
8:15 PM,36.7,31.8,83,30.07,10.0,WNW,8.1,-,N/A,,Clear,300,2013-02-03 02:15:00
8:35 PM,36.3,31.5,83,30.07,10.0,NW,8.1,-,N/A,,Clear,310,2013-02-03 02:35:00
8:55 PM,34.7,31.1,87,30.07,10.0,WNW,5.8,-,N/A,,Scattered Clouds,290,2013-02-03 02:55:00
9:15 PM,35.4,30.9,84,30.07,10.0,WNW,8.1,-,N/A,,Scattered Clouds,290,2013-02-03 03:15:00
9:35 PM,37.2,30.9,78,30.07,10.0,WNW,12.7,19.6,N/A,,Clear,300,2013-02-03 03:35:00
9:55 PM,37.6,29.8,74,30.08,10.0,WNW,10.4,-,N/A,,Clear,300,2013-02-03 03:55:00
10:15 PM,37.9,29.5,72,30.08,10.0,WNW,13.8,-,N/A,,Clear,300,2013-02-03 04:15:00
10:35 PM,37.8,29.3,72,30.08,10.0,WNW,16.1,21.9,N/A,,Clear,300,2013-02-03 04:35:00
10:55 PM,37.4,29.1,72,30.08,10.0,WNW,11.5,-,N/A,,Clear,300,2013-02-03 04:55:00
11:15 PM,37.0,30.0,76,30.09,10.0,WNW,15.0,21.9,N/A,,Clear,300,2013-02-03 05:15:00
11:35 PM,37.0,29.5,74,30.10,10.0,WNW,17.3,23.0,N/A,,Scattered Clouds,290,2013-02-03 05:35:00
11:55 PM,37.4,28.9,71,30.10,10.0,WNW,25.3,36.8,N/A,,Mostly Cloudy,300,2013-02-03 05:55:00